Darstellungsparameter: Aktuell verwendete Einstellungen:
Skalierung der Graphiken ... ?
xyx+y,   Skalierungsfaktor:      Skalierung: Modus: x, Faktor: 1
Darstellungszeitraum ... ?
Vom - - bis: - -   Zeitraum: 23.02.2003 - 31.12.2004
Min/Max/Avg-Anzeige ... ?
Zeige MMA aktuell
Zeige MMA Monat
Zeige MMA alles
Zeige --A aktuell
Zeige --A Monat
Zeige --A alles
Keine MMA-Anzeige
MMA:
Keine MMA-Graphiken
MMA-Basis: 23.02.2003 - 31.12.2004
Quicknavigation für Darstellung... ?
Tage:      1T, 2T, 3T, 5T -1T -2T -3T -5T +1T +2T +3T +5T
Wochen: 1W, 2W, 3W -1W -2W -3W +1W +2W +3W
Monate: 1M, 3M, 6M -1M -3M -6M +1M +3M +6M
Jahre:    1J, 3J, 5J, 10J -1J -3J -5J -10J +1J +3J +5J +10J
Nutze für die Darstellung ... ?
Originaldaten oder ...
Mittelwerte Minima Maxima auf...
Stundenbasis Tagesbasis Wochenbasis
Monatsbasis Jahresbasis      Datenbasis: Mittelwerte auf Tagesbasis
Darstellen als:
Statistik (Auto) Statistik J:M      Darstellung:
Zur Graphik,    zurück zur Übersicht aller Sensoren.
 
Tabellarische Datenbersicht: ?
 
Sensor: Nr:Datum:Temp:Abs-Feuchte:Windchill:Wind:
Aussen-T/F 1 23-02-2003 00:00:00 1.57391 C 3.6 g/m*3 1.57 C 0 km/h
2 24-02-2003 00:00:00 3.08396 C 3.72 g/m*3 3.08 C 0 km/h
3 25-02-2003 00:00:00 1.22845 C 3.23 g/m*3 1.23 C 0 km/h
4 26-02-2003 00:00:00 2.00653 C 3.38 g/m*3 2.01 C 0 km/h
5 27-02-2003 00:00:00 6.02453 C 4.37 g/m*3 6.02 C 0 km/h
6 28-02-2003 00:00:00 7.01339 C 5.38 g/m*3 7.01 C 0 km/h
7 01-03-2003 00:00:00 7.99123 C 6.65 g/m*3 7.99 C 0 km/h
8 02-03-2003 00:00:00 8.58947 C 7.04 g/m*3 8.59 C 0 km/h
9 03-03-2003 00:00:00 5.41134 C 5.75 g/m*3 5.41 C 0 km/h
10 04-03-2003 00:00:00 6.18844 C 5.28 g/m*3 6.19 C 0 km/h
11 05-03-2003 00:00:00 11.37692 C 6.75 g/m*3 11.38 C 0 km/h
12 06-03-2003 00:00:00 8.17302 C 6 g/m*3 8.17 C 0 km/h
13 07-03-2003 00:00:00 5.52766 C 5.16 g/m*3 5.53 C 0 km/h
14 08-03-2003 00:00:00 7.57368 C 4.78 g/m*3 7.57 C 0 km/h
15 09-03-2003 00:00:00 9.86698 C 5.31 g/m*3 9.87 C 0 km/h
16 10-03-2003 00:00:00 10.51917 C 6.01 g/m*3 10.52 C 0 km/h
17 11-03-2003 00:00:00 12.31167 C 6.94 g/m*3 12.31 C 0 km/h
18 12-03-2003 00:00:00 9.19725 C 5.93 g/m*3 9.2 C 0 km/h
19 13-03-2003 00:00:00 7.42917 C 4.31 g/m*3 7.43 C 0 km/h
20 14-03-2003 00:00:00 4.74417 C 3.48 g/m*3 4.74 C 0 km/h
21 15-03-2003 00:00:00 5.11261 C 3.79 g/m*3 5.11 C 0 km/h
22 16-03-2003 00:00:00 5.46583 C 4.01 g/m*3 5.47 C 0 km/h
23 17-03-2003 00:00:00 6.59389 C 4.25 g/m*3 6.59 C 0 km/h
24 18-03-2003 00:00:00 4.7831 C 4.36 g/m*3 4.78 C 0 km/h
25 19-03-2003 00:00:00 6.72437 C 4.61 g/m*3 6.72 C 0 km/h
Sensor: Nr:Datum:Temp:Abs-Feuchte:Windchill:Wind:
Aussen-T/F 26 20-03-2003 00:00:00 5.83083 C 4.68 g/m*3 5.83 C 0 km/h
27 21-03-2003 00:00:00 5.31271 C 4.09 g/m*3 5.31 C 0 km/h
28 22-03-2003 00:00:00 6.51 C 3.09 g/m*3 6.51 C 0 km/h
29 23-03-2003 00:00:00 7.7916 C 3.06 g/m*3 7.79 C 0 km/h
30 24-03-2003 00:00:00 9.90917 C 4.16 g/m*3 9.91 C 0 km/h
31 25-03-2003 00:00:00 12.45126 C 6.38 g/m*3 12.45 C 0 km/h
32 26-03-2003 00:00:00 12.51833 C 7.65 g/m*3 12.52 C 0 km/h
33 27-03-2003 00:00:00 12.4042 C 7.24 g/m*3 12.4 C 0 km/h
34 28-03-2003 00:00:00 13.62333 C 6.91 g/m*3 13.62 C 0 km/h
35 29-03-2003 00:00:00 15.55652 C 8.2 g/m*3 15.56 C 0 km/h
36 30-03-2003 00:00:00 13.94188 C 8.06 g/m*3 13.94 C 0 km/h
37 31-03-2003 00:00:00 10.48833 C 5.2 g/m*3 10.49 C 0 km/h
38 01-04-2003 00:00:00 9.86224 C 5.26 g/m*3 9.86 C 0 km/h
39 02-04-2003 00:00:00 5.81958 C 5.87 g/m*3 5.82 C 0 km/h
40 03-04-2003 00:00:00 5.28292 C 4.77 g/m*3 5.28 C 0 km/h
41 04-04-2003 00:00:00 6.50335 C 4.41 g/m*3 6.5 C 0 km/h
42 05-04-2003 00:00:00 8.93776 C 5.11 g/m*3 8.94 C 0 km/h
43 06-04-2003 00:00:00 8.6063 C 3.55 g/m*3 8.61 C 0 km/h
44 25-04-2003 00:00:00 26.39362 C 6.64 g/m*3 26.39 C 0 km/h
45 26-04-2003 00:00:00 15.08169 C 9.61 g/m*3 15.08 C 0 km/h
46 27-04-2003 00:00:00 12.72168 C 8.24 g/m*3 12.72 C 0 km/h
47 28-04-2003 00:00:00 17.06276 C 8.73 g/m*3 17.06 C 0 km/h
48 29-04-2003 00:00:00 17.9 C 8.79 g/m*3 17.9 C 0 km/h
49 30-04-2003 00:00:00 14.06319 C 10.01 g/m*3 14.06 C 0 km/h
50 01-05-2003 00:00:00 13.28944 C 7.35 g/m*3 13.29 C 0 km/h
Sensor: Nr:Datum:Temp:Abs-Feuchte:Windchill:Wind:
Aussen-T/F 51 02-05-2003 00:00:00 14.91042 C 7.56 g/m*3 14.91 C 0 km/h
52 03-05-2003 00:00:00 14.75944 C 5.98 g/m*3 14.76 C 0 km/h
53 04-05-2003 00:00:00 17.16901 C 7.25 g/m*3 17.17 C 0 km/h
54 05-05-2003 00:00:00 19.43681 C 8.95 g/m*3 19.44 C 0 km/h
55 06-05-2003 00:00:00 15.45874 C 9.46 g/m*3 15.46 C 0 km/h
56 07-05-2003 00:00:00 17.27569 C 8.9 g/m*3 17.28 C 0 km/h
57 08-05-2003 00:00:00 18.80278 C 9.79 g/m*3 18.8 C 0 km/h
58 09-05-2003 00:00:00 15.69375 C 10.2 g/m*3 15.69 C 0 km/h
59 10-05-2003 00:00:00 16.18112 C 8.23 g/m*3 16.18 C 0 km/h
60 11-05-2003 00:00:00 15.48322 C 6.96 g/m*3 15.48 C 0 km/h
61 12-05-2003 00:00:00 16.44028 C 7.63 g/m*3 16.44 C 0 km/h
62 13-05-2003 00:00:00 11.88042 C 6.89 g/m*3 11.88 C 0 km/h
63 14-05-2003 00:00:00 9.76224 C 6.27 g/m*3 9.76 C 0 km/h
64 15-05-2003 00:00:00 12.75944 C 6.15 g/m*3 12.76 C 0 km/h
65 16-05-2003 00:00:00 13.02917 C 6.2 g/m*3 13.03 C 0 km/h
66 17-05-2003 00:00:00 14.35594 C 7.59 g/m*3 14.36 C 0 km/h
67 18-05-2003 00:00:00 16.15714 C 9.6 g/m*3 16.16 C 0 km/h
68 19-05-2003 00:00:00 13.69172 C 10.42 g/m*3 13.69 C 0 km/h
69 20-05-2003 00:00:00 12.97431 C 7.17 g/m*3 12.97 C 0 km/h
70 21-05-2003 00:00:00 11.90559 C 8.02 g/m*3 11.91 C 0 km/h
71 22-05-2003 00:00:00 13.89792 C 10.1 g/m*3 13.9 C 0 km/h
72 23-05-2003 00:00:00 18.97762 C 9.14 g/m*3 18.98 C 0 km/h
73 24-05-2003 00:00:00 19.54577 C 9.98 g/m*3 19.55 C 0 km/h
74 25-05-2003 00:00:00 16.0137 C 8.9 g/m*3 16.01 C 0 km/h
75 26-05-2003 00:00:00 17.77413 C 8.37 g/m*3 17.77 C 0 km/h
Sensor: Nr:Datum:Temp:Abs-Feuchte:Windchill:Wind:
Aussen-T/F 76 27-05-2003 00:00:00 19.34444 C 9.55 g/m*3 19.34 C 0 km/h
77 28-05-2003 00:00:00 20.5951 C 9.97 g/m*3 20.6 C 0 km/h
78 29-05-2003 00:00:00 22.73056 C 10.02 g/m*3 22.73 C 0 km/h
79 30-05-2003 00:00:00 23.71367 C 11.58 g/m*3 23.71 C 0 km/h
80 31-05-2003 00:00:00 21.47902 C 13.38 g/m*3 21.48 C 0 km/h
81 01-06-2003 00:00:00 23.35175 C 13.24 g/m*3 23.35 C 0 km/h
82 02-06-2003 00:00:00 23.57394 C 12.51 g/m*3 23.57 C 0 km/h
83 03-06-2003 00:00:00 23.12153 C 13.79 g/m*3 23.12 C 0 km/h
84 04-06-2003 00:00:00 25.04755 C 13.87 g/m*3 25.05 C 0 km/h
85 05-06-2003 00:00:00 22.86621 C 12.83 g/m*3 22.87 C 0 km/h
86 06-06-2003 00:00:00 22.71608 C 12.29 g/m*3 22.72 C 0 km/h
87 07-06-2003 00:00:00 24.90694 C 13.21 g/m*3 24.91 C 0 km/h
88 08-06-2003 00:00:00 22.7993 C 13.98 g/m*3 22.8 C 0 km/h
89 09-06-2003 00:00:00 19.85139 C 8.47 g/m*3 19.85 C 0 km/h
90 10-06-2003 00:00:00 21.51389 C 12.3 g/m*3 21.51 C 0 km/h
91 11-06-2003 00:00:00 23.96899 C 13.08 g/m*3 23.97 C 0 km/h
92 12-06-2003 00:00:00 22.99412 C 13.7 g/m*3 22.99 C 0 km/h
93 13-06-2003 00:00:00 22.87647 C 11.72 g/m*3 22.88 C 0 km/h
94 14-06-2003 00:00:00 19.34812 C 11.47 g/m*3 19.35 C 0 km/h
95 15-06-2003 00:00:00 22.11274 C 11.31 g/m*3 22.11 C 0 km/h
96 16-06-2003 00:00:00 22.74242 C 9.22 g/m*3 22.74 C 0 km/h
97 17-06-2003 00:00:00 22.74154 C 10.64 g/m*3 22.74 C 0 km/h
98 18-06-2003 00:00:00 20.45909 C 12.13 g/m*3 20.46 C 0 km/h
99 19-06-2003 00:00:00 20.73846 C 11.16 g/m*3 20.74 C 0 km/h
100 20-06-2003 00:00:00 20.76769 C 8.96 g/m*3 20.77 C 0 km/h
Sensor: Nr:Datum:Temp:Abs-Feuchte:Windchill:Wind:
Aussen-T/F 101 21-06-2003 00:00:00 18.57692 C 7.61 g/m*3 18.58 C 0 km/h
102 22-06-2003 00:00:00 22.50152 C 9.54 g/m*3 22.5 C 0 km/h
103 23-06-2003 00:00:00 23.88438 C 11.21 g/m*3 23.88 C 0 km/h
104 24-06-2003 00:00:00 22.05758 C 10.02 g/m*3 22.06 C 0 km/h
105 25-06-2003 00:00:00 21.8 C 9.1 g/m*3 21.8 C 0 km/h
106 26-06-2003 00:00:00 23.58 C 9.35 g/m*3 23.58 C 0 km/h
107 27-06-2003 00:00:00 22.64923 C 9.95 g/m*3 22.65 C 0 km/h
108 28-06-2003 00:00:00 22.94308 C 12.05 g/m*3 22.94 C 0 km/h
109 29-06-2003 00:00:00 25.77699 C 10.4 g/m*3 25.78 C 0 km/h
110 30-06-2003 00:00:00 22.11883 C 12.24 g/m*3 22.12 C 0 km/h
111 01-07-2003 00:00:00 19.41218 C 10.7 g/m*3 19.41 C 0 km/h
112 02-07-2003 00:00:00 17.99791 C 9.76 g/m*3 18 C 0 km/h
113 03-07-2003 00:00:00 17.02667 C 10.35 g/m*3 17.03 C 0 km/h
114 04-07-2003 00:00:00 17.05607 C 10.28 g/m*3 17.06 C 0 km/h
115 05-07-2003 00:00:00 16.84059 C 10.64 g/m*3 16.84 C 0 km/h
116 06-07-2003 00:00:00 20.31743 C 9.59 g/m*3 20.32 C 0 km/h
117 07-07-2003 00:00:00 21.54861 C 9.65 g/m*3 21.55 C 0 km/h
118 08-07-2003 00:00:00 21.54825 C 9.54 g/m*3 21.55 C 0 km/h
119 09-07-2003 00:00:00 20.83077 C 10.49 g/m*3 20.83 C 0 km/h
120 10-07-2003 00:00:00 21.87972 C 10.1 g/m*3 21.88 C 0 km/h
121 11-07-2003 00:00:00 22.96875 C 10.61 g/m*3 22.97 C 0 km/h
122 12-07-2003 00:00:00 21.7951 C 8.51 g/m*3 21.8 C 0 km/h
123 13-07-2003 00:00:00 22.62708 C 9.02 g/m*3 22.63 C 0 km/h
124 14-07-2003 00:00:00 24.49648 C 8.2 g/m*3 24.5 C 0 km/h
125 15-07-2003 00:00:00 25.82168 C 8.71 g/m*3 25.82 C 0 km/h
Sensor: Nr:Datum:Temp:Abs-Feuchte:Windchill:Wind:
Aussen-T/F 126 16-07-2003 00:00:00 26.9125 C 9.52 g/m*3 26.91 C 0 km/h
127 17-07-2003 00:00:00 21.73147 C 9.97 g/m*3 21.73 C 0 km/h
128 18-07-2003 00:00:00 23.17361 C 9.24 g/m*3 23.17 C 0 km/h
129 19-07-2003 00:00:00 25.16783 C 9.49 g/m*3 25.17 C 0 km/h
130 20-07-2003 00:00:00 25.17292 C 10.49 g/m*3 25.17 C 0 km/h
131 21-07-2003 00:00:00 24.85804 C 13.44 g/m*3 24.86 C 0 km/h
132 22-07-2003 00:00:00 23.93147 C 13.41 g/m*3 23.93 C 0 km/h
133 23-07-2003 00:00:00 23.35208 C 11.09 g/m*3 23.35 C 0 km/h
134 24-07-2003 00:00:00 21.31549 C 11.76 g/m*3 21.32 C 0 km/h
135 25-07-2003 00:00:00 21.11064 C 11.64 g/m*3 21.11 C 0 km/h
136 26-07-2003 00:00:00 21.33333 C 12.47 g/m*3 21.33 C 0 km/h
137 27-07-2003 00:00:00 20.99861 C 14.27 g/m*3 21 C 0 km/h
138 28-07-2003 00:00:00 20.96667 C 9.78 g/m*3 20.97 C 0 km/h
139 29-07-2003 00:00:00 21.55556 C 8.86 g/m*3 21.56 C 0 km/h
140 30-07-2003 00:00:00 19.87292 C 11.23 g/m*3 19.87 C 0 km/h
141 31-07-2003 00:00:00 22.51319 C 13.35 g/m*3 22.51 C 0 km/h
142 01-08-2003 00:00:00 24.69658 C 11.82 g/m*3 24.7 C 0 km/h
143 02-08-2003 00:00:00 26.31181 C 11.89 g/m*3 26.31 C 0 km/h
144 03-08-2003 00:00:00 26.94236 C 12.66 g/m*3 26.94 C 0 km/h
145 04-08-2003 00:00:00 27.77133 C 12.6 g/m*3 27.77 C 0 km/h
146 05-08-2003 00:00:00 27.84375 C 11.54 g/m*3 27.84 C 0 km/h
147 06-08-2003 00:00:00 27.87292 C 11.76 g/m*3 27.87 C 0 km/h
148 07-08-2003 00:00:00 28.54167 C 10.88 g/m*3 28.54 C 0 km/h
149 08-08-2003 00:00:00 28.9625 C 11.22 g/m*3 28.96 C 0 km/h
150 09-08-2003 00:00:00 28.56528 C 12.44 g/m*3 28.57 C 0 km/h
Sensor: Nr:Datum:Temp:Abs-Feuchte:Windchill:Wind:
Aussen-T/F 151 10-08-2003 00:00:00 27.40347 C 10.21 g/m*3 27.4 C 0 km/h
152 11-08-2003 00:00:00 26.68333 C 9.8 g/m*3 26.68 C 0 km/h
153 12-08-2003 00:00:00 28.33655 C 10.48 g/m*3 28.34 C 0 km/h
154 13-08-2003 00:00:00 27.60694 C 10.9 g/m*3 27.61 C 0 km/h
155 14-08-2003 00:00:00 24.19301 C 10.36 g/m*3 24.19 C 0 km/h
156 15-08-2003 00:00:00 21.19583 C 8.05 g/m*3 21.2 C 0 km/h
157 16-08-2003 00:00:00 20.93819 C 8.03 g/m*3 20.94 C 0 km/h
158 17-08-2003 00:00:00 21.95417 C 8.71 g/m*3 21.95 C 0 km/h
159 18-08-2003 00:00:00 19.58194 C 13.98 g/m*3 19.58 C 0 km/h
160 19-08-2003 00:00:00 21.01528 C 12.66 g/m*3 21.02 C 0 km/h
161 20-08-2003 00:00:00 20.52164 C 9.87 g/m*3 20.52 C 0 km/h
162 21-08-2003 00:00:00 20.59583 C 9.54 g/m*3 20.6 C 0 km/h
163 22-08-2003 00:00:00 20.25 C 9.6 g/m*3 20.25 C 0 km/h
164 23-08-2003 00:00:00 21.61417 C 11.02 g/m*3 21.61 C 0 km/h
165 24-08-2003 00:00:00 20.755 C 9.76 g/m*3 20.76 C 0 km/h
166 25-08-2003 00:00:00 20.085 C 8.94 g/m*3 20.09 C 0 km/h
167 26-08-2003 00:00:00 20.6475 C 9.1 g/m*3 20.65 C 0 km/h
168 27-08-2003 00:00:00 18.16083 C 9.11 g/m*3 18.16 C 0 km/h
169 28-08-2003 00:00:00 18.705 C 10.16 g/m*3 18.7 C 0 km/h
170 29-08-2003 00:00:00 17.34333 C 12.45 g/m*3 17.34 C 0 km/h
171 30-08-2003 00:00:00 14.92583 C 10.45 g/m*3 14.93 C 0 km/h
172 31-08-2003 00:00:00 14.155 C 8.69 g/m*3 14.16 C 0 km/h
173 01-09-2003 00:00:00 13.11417 C 8.14 g/m*3 13.11 C 0 km/h
174 02-09-2003 00:00:00 14.14167 C 8.13 g/m*3 14.14 C 0 km/h
175 03-09-2003 00:00:00 14.39 C 7.38 g/m*3 14.39 C 0 km/h
Sensor: Nr:Datum:Temp:Abs-Feuchte:Windchill:Wind:
Aussen-T/F 176 04-09-2003 00:00:00 16.6175 C 8.24 g/m*3 16.62 C 0 km/h
177 05-09-2003 00:00:00 17.74833 C 8.41 g/m*3 17.75 C 0 km/h
178 06-09-2003 00:00:00 19.795 C 10.64 g/m*3 19.8 C 0 km/h
179 07-09-2003 00:00:00 18.97417 C 10.92 g/m*3 18.97 C 0 km/h
180 08-09-2003 00:00:00 16.28824 C 10.4 g/m*3 16.29 C 0 km/h
181 09-09-2003 00:00:00 15.21417 C 9.12 g/m*3 15.21 C 0 km/h
182 10-09-2003 00:00:00 14.80667 C 9.88 g/m*3 14.81 C 0 km/h
183 11-09-2003 00:00:00 14.8625 C 8.4 g/m*3 14.86 C 0 km/h
184 12-09-2003 00:00:00 16.89667 C 8.98 g/m*3 16.9 C 0 km/h
185 13-09-2003 00:00:00 17.87 C 8.81 g/m*3 17.87 C 0 km/h
186 14-09-2003 00:00:00 15.66083 C 8.48 g/m*3 15.66 C 0 km/h
187 15-09-2003 00:00:00 16.91818 C 9.43 g/m*3 16.92 C 0 km/h
188 16-09-2003 00:00:00 16.72397 C 9.58 g/m*3 16.72 C 0 km/h
189 17-09-2003 00:00:00 17.685 C 9.86 g/m*3 17.68 C 0 km/h
190 18-09-2003 00:00:00 18.04583 C 9.06 g/m*3 18.05 C 0 km/h
191 19-09-2003 00:00:00 19.47083 C 9.69 g/m*3 19.47 C 0 km/h
192 20-09-2003 00:00:00 20.25882 C 10.57 g/m*3 20.26 C 0 km/h
193 21-09-2003 00:00:00 20.695 C 9.57 g/m*3 20.7 C 0 km/h
194 22-09-2003 00:00:00 18.3225 C 10.88 g/m*3 18.32 C 0 km/h
195 23-09-2003 00:00:00 13.95333 C 8.5 g/m*3 13.95 C 0 km/h
196 24-09-2003 00:00:00 10.7375 C 6.94 g/m*3 10.74 C 0 km/h
197 25-09-2003 00:00:00 11.6925 C 6.73 g/m*3 11.69 C 0 km/h
198 26-09-2003 00:00:00 12.8025 C 7.07 g/m*3 12.8 C 0 km/h
199 27-09-2003 00:00:00 13.93417 C 8.15 g/m*3 13.93 C 0 km/h
200 28-09-2003 00:00:00 14.33554 C 9.53 g/m*3 14.34 C 0 km/h
Sensor: Nr:Datum:Temp:Abs-Feuchte:Windchill:Wind:
Aussen-T/F 201 29-09-2003 00:00:00 13.1625 C 7.49 g/m*3 13.16 C 0 km/h
202 30-09-2003 00:00:00 12.02083 C 7.43 g/m*3 12.02 C 0 km/h
203 01-10-2003 00:00:00 10.64793 C 7.98 g/m*3 10.65 C 0 km/h
204 02-10-2003 00:00:00 16.3025 C 11.21 g/m*3 16.3 C 0 km/h
205 03-10-2003 00:00:00 16.015 C 10.52 g/m*3 16.02 C 0 km/h
206 04-10-2003 00:00:00 12.51583 C 8.78 g/m*3 12.52 C 0 km/h
207 05-10-2003 00:00:00 9.27917 C 6.68 g/m*3 9.28 C 0 km/h
208 06-10-2003 00:00:00 7.6025 C 6.17 g/m*3 7.6 C 0 km/h
209 07-10-2003 00:00:00 8.125 C 6.67 g/m*3 8.13 C 0 km/h
210 08-10-2003 00:00:00 9.46694 C 6.93 g/m*3 9.47 C 0 km/h
211 09-10-2003 00:00:00 12.52833 C 8.38 g/m*3 12.53 C 0 km/h
212 10-10-2003 00:00:00 13.88667 C 8.8 g/m*3 13.89 C 0 km/h
213 11-10-2003 00:00:00 13.46833 C 8.93 g/m*3 13.47 C 0 km/h
214 12-10-2003 00:00:00 10.71157 C 6.94 g/m*3 10.71 C 0 km/h
215 13-10-2003 00:00:00 8.84417 C 6.18 g/m*3 8.84 C 0 km/h
216 14-10-2003 00:00:00 8.61774 C 5.57 g/m*3 8.62 C 0 km/h
217 15-10-2003 00:00:00 6.7392 C 5.15 g/m*3 6.74 C 0 km/h
218 16-10-2003 00:00:00 7.11532 C 5.35 g/m*3 7.12 C 0 km/h
219 17-10-2003 00:00:00 6.33417 C 4.84 g/m*3 6.33 C 0 km/h
220 18-10-2003 00:00:00 4.57667 C 4.79 g/m*3 4.58 C 0 km/h
221 19-10-2003 00:00:00 4.02333 C 4.99 g/m*3 4.02 C 0 km/h
222 20-10-2003 00:00:00 6.06833 C 5.39 g/m*3 6.07 C 0 km/h
223 21-10-2003 00:00:00 5.19853 C 5.43 g/m*3 5.2 C 0 km/h
224 22-10-2003 00:00:00 3.7873 C 5.48 g/m*3 3.79 C 0 km/h
225 23-10-2003 00:00:00 3.55476 C 3.96 g/m*3 3.55 C 0 km/h
Sensor: Nr:Datum:Temp:Abs-Feuchte:Windchill:Wind:
Aussen-T/F 226 24-10-2003 00:00:00 0.92869 C 3.4 g/m*3 0.93 C 0 km/h
227 25-10-2003 00:00:00 4.80331 C 4.49 g/m*3 4.8 C 0 km/h
228 26-10-2003 00:00:00 6.43361 C 5.2 g/m*3 6.43 C 0 km/h
229 27-10-2003 00:00:00 6.27667 C 5.5 g/m*3 6.28 C 0 km/h
230 28-10-2003 00:00:00 4.52667 C 4.92 g/m*3 4.53 C 0 km/h
231 29-10-2003 00:00:00 5.675 C 6.08 g/m*3 5.68 C 0 km/h
232 30-10-2003 00:00:00 5.9688 C 6.02 g/m*3 5.97 C 0 km/h
233 31-10-2003 00:00:00 7.1 C 6.8 g/m*3 7.1 C 0 km/h
234 01-11-2003 00:00:00 9.5144 C 6.99 g/m*3 9.51 C 0 km/h
235 02-11-2003 00:00:00 9.956 C 6.37 g/m*3 9.96 C 0 km/h
236 03-11-2003 00:00:00 12.28333 C 7.25 g/m*3 12.28 C 0 km/h
237 04-11-2003 00:00:00 9.815 C 6.84 g/m*3 9.82 C 0 km/h
238 05-11-2003 00:00:00 6.345 C 5.98 g/m*3 6.35 C 0 km/h
239 06-11-2003 00:00:00 4.63388 C 5.31 g/m*3 4.63 C 0 km/h
240 07-11-2003 00:00:00 5.57323 C 4.97 g/m*3 5.57 C 0 km/h
241 08-11-2003 00:00:00 6.66748 C 5.03 g/m*3 6.67 C 0 km/h
242 09-11-2003 00:00:00 5.94409 C 5.25 g/m*3 5.94 C 0 km/h
243 10-11-2003 00:00:00 6.52937 C 5.72 g/m*3 6.53 C 0 km/h
244 11-11-2003 00:00:00 5.2064 C 4.78 g/m*3 5.21 C 0 km/h
245 12-11-2003 00:00:00 5.06859 C 4.88 g/m*3 5.07 C 0 km/h
246 13-11-2003 00:00:00 7.195 C 5.99 g/m*3 7.2 C 0 km/h
247 14-11-2003 00:00:00 5.67167 C 5.63 g/m*3 5.67 C 0 km/h
248 15-11-2003 00:00:00 6.93719 C 5.98 g/m*3 6.94 C 0 km/h
249 16-11-2003 00:00:00 4.36532 C 5.7 g/m*3 4.37 C 0 km/h
250 17-11-2003 00:00:00 6.63361 C 5.71 g/m*3 6.63 C 0 km/h
Sensor: Nr:Datum:Temp:Abs-Feuchte:Windchill:Wind:
Aussen-T/F 251 18-11-2003 00:00:00 8.51967 C 7 g/m*3 8.52 C 0 km/h
252 19-11-2003 00:00:00 11.89837 C 7.86 g/m*3 11.9 C 0 km/h
253 20-11-2003 00:00:00 10.56167 C 7.07 g/m*3 10.56 C 0 km/h
254 21-11-2003 00:00:00 9.79083 C 6.66 g/m*3 9.79 C 0 km/h
255 22-11-2003 00:00:00 9.85167 C 6.99 g/m*3 9.85 C 0 km/h
256 23-11-2003 00:00:00 13.305 C 6.83 g/m*3 13.31 C 0 km/h
257 24-11-2003 00:00:00 13.64667 C 7.3 g/m*3 13.65 C 0 km/h
258 25-11-2003 00:00:00 11.82683 C 7.35 g/m*3 11.83 C 0 km/h
259 26-11-2003 00:00:00 9.87317 C 6.37 g/m*3 9.87 C 0 km/h
260 27-11-2003 00:00:00 7.63871 C 7.01 g/m*3 7.64 C 0 km/h
261 28-11-2003 00:00:00 5.24797 C 5.9 g/m*3 5.25 C 0 km/h
262 29-11-2003 00:00:00 3.545 C 4.95 g/m*3 3.55 C 0 km/h
263 30-11-2003 00:00:00 5.35833 C 5.77 g/m*3 5.36 C 0 km/h
264 01-12-2003 00:00:00 7.79167 C 6.28 g/m*3 7.79 C 0 km/h
265 02-12-2003 00:00:00 5.15833 C 5.56 g/m*3 5.16 C 0 km/h
266 03-12-2003 00:00:00 3.17273 C 5.32 g/m*3 3.17 C 0 km/h
267 04-12-2003 00:00:00 4.92258 C 5.43 g/m*3 4.92 C 0 km/h
268 05-12-2003 00:00:00 5.37787 C 5.04 g/m*3 5.38 C 0 km/h
269 06-12-2003 00:00:00 3.05124 C 4.26 g/m*3 3.05 C 0 km/h
270 07-12-2003 00:00:00 -2.40492 C 2.91 g/m*3 -2.4 C 0 km/h
271 08-12-2003 00:00:00 -4.28 C 2.82 g/m*3 -4.28 C 0 km/h
272 09-12-2003 00:00:00 -4.81083 C 2.64 g/m*3 -4.81 C 0 km/h
273 10-12-2003 00:00:00 -3.95583 C 2.85 g/m*3 -3.96 C 0 km/h
274 11-12-2003 00:00:00 1.15083 C 3.9 g/m*3 1.15 C 0 km/h
275 12-12-2003 00:00:00 4.94758 C 5.36 g/m*3 4.95 C 0 km/h
Sensor: Nr:Datum:Temp:Abs-Feuchte:Windchill:Wind:
Aussen-T/F 276 13-12-2003 00:00:00 10.35 C 7.53 g/m*3 10.35 C 0 km/h
277 14-12-2003 00:00:00 7.74758 C 5.35 g/m*3 7.75 C 0 km/h
278 15-12-2003 00:00:00 3.0314 C 4.11 g/m*3 3.03 C 0 km/h
279 16-12-2003 00:00:00 3.83333 C 4.46 g/m*3 3.83 C 0 km/h
280 17-12-2003 00:00:00 3.71417 C 4.71 g/m*3 3.71 C 0 km/h
281 18-12-2003 00:00:00 -0.60917 C 3.92 g/m*3 -0.61 C 0 km/h
282 19-12-2003 00:00:00 2.1325 C 4.51 g/m*3 2.13 C 0 km/h
283 20-12-2003 00:00:00 8.76446 C 6.39 g/m*3 8.76 C 0 km/h
284 21-12-2003 00:00:00 6.09262 C 5.24 g/m*3 6.09 C 0 km/h
285 22-12-2003 00:00:00 1.6822 C 3.9 g/m*3 1.68 C 0 km/h
286 23-12-2003 00:00:00 -0.1781 C 3.56 g/m*3 -0.18 C 0 km/h
287 24-12-2003 00:00:00 1.48333 C 3.74 g/m*3 1.48 C 0 km/h
288 25-12-2003 00:00:00 3.60256 C 4.32 g/m*3 3.6 C 0 km/h
289 26-12-2003 00:00:00 5.71008 C 5.12 g/m*3 5.71 C 0 km/h
290 27-12-2003 00:00:00 7.0438 C 5.41 g/m*3 7.04 C 0 km/h
291 28-12-2003 00:00:00 7.02333 C 5.58 g/m*3 7.02 C 0 km/h
292 29-12-2003 00:00:00 1.82917 C 3.79 g/m*3 1.83 C 0 km/h
293 30-12-2003 00:00:00 -1.70333 C 3.6 g/m*3 -1.7 C 0 km/h
294 31-12-2003 00:00:00 -1.04017 C 3.54 g/m*3 -1.04 C 0 km/h
295 01-01-2004 00:00:00 -2.37115 C 3.12 g/m*3 -2.37 C 0 km/h
296 02-01-2004 00:00:00 -2.12212 C 2.04 g/m*3 -2.12 C 0 km/h
297 03-01-2004 00:00:00 -5.68621 C 2.3 g/m*3 -5.69 C 0 km/h
298 04-01-2004 00:00:00 -2.61969 C 2.92 g/m*3 -2.62 C 0 km/h
299 05-01-2004 00:00:00 1.15917 C 4.37 g/m*3 1.16 C 0 km/h
300 06-01-2004 00:00:00 2.9925 C 5.17 g/m*3 2.99 C 0 km/h
Sensor: Nr:Datum:Temp:Abs-Feuchte:Windchill:Wind:
Aussen-T/F 301 07-01-2004 00:00:00 5.665 C 5.73 g/m*3 5.67 C 0 km/h
302 08-01-2004 00:00:00 4.4437 C 5.17 g/m*3 4.44 C 0 km/h
303 09-01-2004 00:00:00 5.33898 C 5.6 g/m*3 5.34 C 0 km/h
304 10-01-2004 00:00:00 4.62667 C 4.95 g/m*3 4.63 C 0 km/h
305 11-01-2004 00:00:00 9.1975 C 6.62 g/m*3 9.2 C 0 km/h
306 12-01-2004 00:00:00 5.775 C 5.22 g/m*3 5.78 C 0 km/h
307 13-01-2004 00:00:00 7.80083 C 5.69 g/m*3 7.8 C 0 km/h
308 14-01-2004 00:00:00 5.86667 C 4.58 g/m*3 5.87 C 0 km/h
309 15-01-2004 00:00:00 4.12083 C 4.51 g/m*3 4.12 C 0 km/h
310 16-01-2004 00:00:00 5.9575 C 4.71 g/m*3 5.96 C 0 km/h
311 17-01-2004 00:00:00 4.54333 C 4.53 g/m*3 4.54 C 0 km/h
312 18-01-2004 00:00:00 2.49583 C 3.96 g/m*3 2.5 C 0 km/h
313 19-01-2004 00:00:00 0.56471 C 3.91 g/m*3 0.56 C 0 km/h
314 20-01-2004 00:00:00 4.19833 C 4.81 g/m*3 4.2 C 0 km/h
315 21-01-2004 00:00:00 0.6125 C 3.15 g/m*3 0.61 C 0 km/h
316 22-01-2004 00:00:00 -0.92333 C 3.11 g/m*3 -0.92 C 0 km/h
317 23-01-2004 00:00:00 -0.45583 C 3 g/m*3 -0.46 C 0 km/h
318 24-01-2004 00:00:00 -0.8575 C 3.11 g/m*3 -0.86 C 0 km/h
319 25-01-2004 00:00:00 2.03167 C 4.55 g/m*3 2.03 C 0 km/h
320 26-01-2004 00:00:00 1.7325 C 3.9 g/m*3 1.73 C 0 km/h
321 27-01-2004 00:00:00 0.47583 C 3.24 g/m*3 0.48 C 0 km/h
322 28-01-2004 00:00:00 0.665 C 3.39 g/m*3 0.67 C 0 km/h
323 29-01-2004 00:00:00 0.295 C 3.5 g/m*3 0.3 C 0 km/h
324 30-01-2004 00:00:00 0.67083 C 3 g/m*3 0.67 C 0 km/h
325 31-01-2004 00:00:00 6.21597 C 4.37 g/m*3 6.22 C 0 km/h
Sensor: Nr:Datum:Temp:Abs-Feuchte:Windchill:Wind:
Aussen-T/F 326 01-02-2004 00:00:00 11.11083 C 5.85 g/m*3 11.11 C 0 km/h
327 02-02-2004 00:00:00 11.24083 C 6.81 g/m*3 11.24 C 0 km/h
328 03-02-2004 00:00:00 11.46 C 6.4 g/m*3 11.46 C 0 km/h
329 04-02-2004 00:00:00 12.275 C 5.56 g/m*3 12.28 C 0 km/h
330 05-02-2004 00:00:00 12.8325 C 5.77 g/m*3 12.83 C 0 km/h
331 06-02-2004 00:00:00 13.52417 C 5.92 g/m*3 13.52 C 0 km/h
332 07-02-2004 00:00:00 9.05417 C 4.41 g/m*3 9.05 C 0 km/h
333 08-02-2004 00:00:00 4.03583 C 4.28 g/m*3 4.04 C 0 km/h
334 09-02-2004 00:00:00 3.1225 C 3.69 g/m*3 3.12 C 0 km/h
335 10-02-2004 00:00:00 2.2525 C 3.66 g/m*3 2.25 C 0 km/h
336 11-02-2004 00:00:00 5.42417 C 5.62 g/m*3 5.42 C 0 km/h
337 12-02-2004 00:00:00 3.90932 C 4.01 g/m*3 3.91 C 0 km/h
338 13-02-2004 00:00:00 5.5876 C 5.33 g/m*3 5.59 C 0 km/h
339 14-02-2004 00:00:00 6.88083 C 5.67 g/m*3 6.88 C 0 km/h
340 15-02-2004 00:00:00 6.2625 C 5.4 g/m*3 6.26 C 0 km/h
341 16-02-2004 00:00:00 5.3425 C 4.83 g/m*3 5.34 C 0 km/h
342 17-02-2004 00:00:00 3.33417 C 4.18 g/m*3 3.33 C 0 km/h
343 18-02-2004 00:00:00 4.05167 C 4.09 g/m*3 4.05 C 0 km/h
344 19-02-2004 00:00:00 1.21833 C 3.08 g/m*3 1.22 C 0 km/h
345 20-02-2004 00:00:00 2.01417 C 2.7 g/m*3 2.01 C 0 km/h
346 21-02-2004 00:00:00 1.18 C 2.9 g/m*3 1.18 C 0 km/h
347 22-02-2004 00:00:00 1.965 C 3.3 g/m*3 1.97 C 0 km/h
348 23-02-2004 00:00:00 0.45868 C 3 g/m*3 0.46 C 0 km/h
349 24-02-2004 00:00:00 -0.95167 C 2.8 g/m*3 -0.95 C 0 km/h
350 25-02-2004 00:00:00 1.34583 C 3.91 g/m*3 1.35 C 0 km/h
Sensor: Nr:Datum:Temp:Abs-Feuchte:Windchill:Wind:
Aussen-T/F 351 26-02-2004 00:00:00 -0.21417 C 3.08 g/m*3 -0.21 C 0 km/h
352 27-02-2004 00:00:00 -1.6575 C 2.58 g/m*3 -1.66 C 0 km/h
353 28-02-2004 00:00:00 0.15508 C 2.64 g/m*3 0.16 C 0 km/h
354 29-02-2004 00:00:00 -1.085 C 2.65 g/m*3 -1.09 C 0 km/h
355 01-03-2004 00:00:00 -0.13417 C 2.61 g/m*3 -0.13 C 0 km/h
356 02-03-2004 00:00:00 3.0575 C 3.76 g/m*3 3.06 C 0 km/h
357 03-03-2004 00:00:00 3.86667 C 3.33 g/m*3 3.87 C 0 km/h
358 04-03-2004 00:00:00 3.09 C 3.39 g/m*3 3.09 C 0 km/h
359 05-03-2004 00:00:00 3.3075 C 2.85 g/m*3 3.31 C 0 km/h
360 06-03-2004 00:00:00 1.425 C 4.24 g/m*3 1.43 C 0 km/h
361 07-03-2004 00:00:00 3.68583 C 4.59 g/m*3 3.69 C 0 km/h
362 08-03-2004 00:00:00 4.06167 C 3.66 g/m*3 4.06 C 0 km/h
363 09-03-2004 00:00:00 1.66333 C 3.41 g/m*3 1.66 C 0 km/h
364 10-03-2004 00:00:00 0.88 C 3.88 g/m*3 0.88 C 0 km/h
365 11-03-2004 00:00:00 1.12857 C 4.05 g/m*3 1.13 C 0 km/h
366 12-03-2004 00:00:00 3.4975 C 3.96 g/m*3 3.5 C 0 km/h
367 13-03-2004 00:00:00 9.25417 C 5.28 g/m*3 9.25 C 0 km/h
368 14-03-2004 00:00:00 9.66417 C 4.9 g/m*3 9.66 C 0 km/h
369 15-03-2004 00:00:00 11.64167 C 5.22 g/m*3 11.64 C 0 km/h
370 16-03-2004 00:00:00 12.85583 C 6.54 g/m*3 12.86 C 0 km/h
371 17-03-2004 00:00:00 12.58333 C 6.62 g/m*3 12.58 C 0 km/h
372 18-03-2004 00:00:00 14.18 C 7.14 g/m*3 14.18 C 0 km/h
373 19-03-2004 00:00:00 12.33333 C 6.93 g/m*3 12.33 C 0 km/h
374 20-03-2004 00:00:00 12.1875 C 7.53 g/m*3 12.19 C 0 km/h
375 21-03-2004 00:00:00 9.85583 C 5.92 g/m*3 9.86 C 0 km/h
Sensor: Nr:Datum:Temp:Abs-Feuchte:Windchill:Wind:
Aussen-T/F 376 22-03-2004 00:00:00 6.47917 C 5.54 g/m*3 6.48 C 0 km/h
377 23-03-2004 00:00:00 5.15966 C 5.49 g/m*3 5.16 C 0 km/h
378 24-03-2004 00:00:00 5.735 C 4.8 g/m*3 5.74 C 0 km/h
379 25-03-2004 00:00:00 4.39083 C 4.22 g/m*3 4.39 C 0 km/h
380 26-03-2004 00:00:00 2.8575 C 3.77 g/m*3 2.86 C 0 km/h
381 27-03-2004 00:00:00 2.76167 C 3.42 g/m*3 2.76 C 0 km/h
382 28-03-2004 00:00:00 4.98174 C 3.63 g/m*3 4.98 C 0 km/h
383 29-03-2004 00:00:00 7.27 C 4.13 g/m*3 7.27 C 0 km/h
384 30-03-2004 00:00:00 11.1075 C 4.45 g/m*3 11.11 C 0 km/h
385 31-03-2004 00:00:00 11.83 C 5.02 g/m*3 11.83 C 0 km/h
386 01-04-2004 00:00:00 14.11083 C 5.67 g/m*3 14.11 C 0 km/h
387 02-04-2004 00:00:00 13.71083 C 6.01 g/m*3 13.71 C 0 km/h
388 03-04-2004 00:00:00 12.5275 C 7.01 g/m*3 12.53 C 0 km/h
389 04-04-2004 00:00:00 12.14333 C 5.94 g/m*3 12.14 C 0 km/h
390 05-04-2004 00:00:00 8.31176 C 5.82 g/m*3 8.31 C 0 km/h
391 06-04-2004 00:00:00 6.33333 C 5.48 g/m*3 6.33 C 0 km/h
392 07-04-2004 00:00:00 5.33417 C 5.38 g/m*3 5.33 C 0 km/h
393 08-04-2004 00:00:00 6.565 C 5.43 g/m*3 6.57 C 0 km/h
394 09-04-2004 00:00:00 7.14583 C 5.29 g/m*3 7.15 C 0 km/h
395 10-04-2004 00:00:00 7.875 C 5.71 g/m*3 7.88 C 0 km/h
396 11-04-2004 00:00:00 7.40667 C 5.06 g/m*3 7.41 C 0 km/h
397 12-04-2004 00:00:00 8.5875 C 4.97 g/m*3 8.59 C 0 km/h
398 13-04-2004 00:00:00 10.13917 C 5.92 g/m*3 10.14 C 0 km/h
399 14-04-2004 00:00:00 11.98667 C 5.46 g/m*3 11.99 C 0 km/h
400 15-04-2004 00:00:00 11.55833 C 5.32 g/m*3 11.56 C 0 km/h
Sensor: Nr:Datum:Temp:Abs-Feuchte:Windchill:Wind:
Aussen-T/F 401 16-04-2004 00:00:00 14.20083 C 6.04 g/m*3 14.2 C 0 km/h
402 17-04-2004 00:00:00 14.72521 C 6.1 g/m*3 14.73 C 0 km/h
403 18-04-2004 00:00:00 12.97583 C 6.27 g/m*3 12.98 C 0 km/h
404 19-04-2004 00:00:00 10.14917 C 4.68 g/m*3 10.15 C 0 km/h
405 20-04-2004 00:00:00 10.01083 C 6.42 g/m*3 10.01 C 0 km/h
406 21-04-2004 00:00:00 14.15667 C 7.93 g/m*3 14.16 C 0 km/h
407 22-04-2004 00:00:00 16.29917 C 8.77 g/m*3 16.3 C 0 km/h
408 23-04-2004 00:00:00 13.10417 C 8.1 g/m*3 13.1 C 0 km/h
409 24-04-2004 00:00:00 12.5125 C 6.29 g/m*3 12.51 C 0 km/h
410 25-04-2004 00:00:00 12.58083 C 6.49 g/m*3 12.58 C 0 km/h
411 26-04-2004 00:00:00 14.825 C 6.6 g/m*3 14.83 C 0 km/h
412 27-04-2004 00:00:00 16.15917 C 7.23 g/m*3 16.16 C 0 km/h
413 28-04-2004 00:00:00 16.0125 C 8.73 g/m*3 16.01 C 0 km/h
414 29-04-2004 00:00:00 16.4958 C 9.99 g/m*3 16.5 C 0 km/h
415 30-04-2004 00:00:00 18.50167 C 9.7 g/m*3 18.5 C 0 km/h
416 01-05-2004 00:00:00 14.56639 C 10 g/m*3 14.57 C 0 km/h
417 02-05-2004 00:00:00 15.70083 C 8.35 g/m*3 15.7 C 0 km/h
418 03-05-2004 00:00:00 14.50667 C 7.67 g/m*3 14.51 C 0 km/h
419 04-05-2004 00:00:00 14.02167 C 7.33 g/m*3 14.02 C 0 km/h
420 05-05-2004 00:00:00 12.41083 C 5.81 g/m*3 12.41 C 0 km/h
421 06-05-2004 00:00:00 10.04167 C 6.93 g/m*3 10.04 C 0 km/h
422 07-05-2004 00:00:00 8.415 C 7.62 g/m*3 8.41 C 0 km/h
423 08-05-2004 00:00:00 7.58083 C 6.96 g/m*3 7.58 C 0 km/h
424 09-05-2004 00:00:00 10.3025 C 7.31 g/m*3 10.3 C 0 km/h
425 10-05-2004 00:00:00 12.86 C 8.86 g/m*3 12.86 C 0 km/h
Sensor: Nr:Datum:Temp:Abs-Feuchte:Windchill:Wind:
Aussen-T/F 426 11-05-2004 00:00:00 14.43866 C 8.64 g/m*3 14.44 C 0 km/h
427 12-05-2004 00:00:00 12.22583 C 6.55 g/m*3 12.23 C 0 km/h
428 13-05-2004 00:00:00 11.9225 C 6.73 g/m*3 11.92 C 0 km/h
429 14-05-2004 00:00:00 15.3875 C 7.71 g/m*3 15.39 C 0 km/h
430 15-05-2004 00:00:00 14.34333 C 7.71 g/m*3 14.34 C 0 km/h
431 16-05-2004 00:00:00 16.78167 C 8.21 g/m*3 16.78 C 0 km/h
432 17-05-2004 00:00:00 17.8875 C 8.72 g/m*3 17.89 C 0 km/h
433 18-05-2004 00:00:00 18.75917 C 8.84 g/m*3 18.76 C 0 km/h
434 19-05-2004 00:00:00 19.56 C 9.24 g/m*3 19.56 C 0 km/h
435 20-05-2004 00:00:00 19.53 C 8.61 g/m*3 19.53 C 0 km/h
436 21-05-2004 00:00:00 13.19833 C 8 g/m*3 13.2 C 0 km/h
437 22-05-2004 00:00:00 10.73083 C 5.07 g/m*3 10.73 C 0 km/h
438 23-05-2004 00:00:00 11.5479 C 5.05 g/m*3 11.55 C 0 km/h
439 24-05-2004 00:00:00 11.78 C 5.65 g/m*3 11.78 C 0 km/h
440 25-05-2004 00:00:00 14.72583 C 6.62 g/m*3 14.73 C 0 km/h
441 26-05-2004 00:00:00 14.9725 C 6.13 g/m*3 14.97 C 0 km/h
442 27-05-2004 00:00:00 12.81083 C 5.6 g/m*3 12.81 C 0 km/h
443 28-05-2004 00:00:00 13.97333 C 6.32 g/m*3 13.97 C 0 km/h
444 29-05-2004 00:00:00 17.0438 C 6.95 g/m*3 17.04 C 0 km/h
445 30-05-2004 00:00:00 18.69077 C 7.26 g/m*3 18.69 C 0 km/h
446 31-05-2004 00:00:00 15.58167 C 10.4 g/m*3 15.58 C 0 km/h
447 01-06-2004 00:00:00 16.40168 C 9.4 g/m*3 16.4 C 0 km/h
448 02-06-2004 00:00:00 14.86303 C 9.85 g/m*3 14.86 C 0 km/h
449 03-06-2004 00:00:00 16.36167 C 10.23 g/m*3 16.36 C 0 km/h
450 04-06-2004 00:00:00 13.82583 C 10.17 g/m*3 13.83 C 0 km/h
Sensor: Nr:Datum:Temp:Abs-Feuchte:Windchill:Wind:
Aussen-T/F 451 05-06-2004 00:00:00 14.33583 C 9.13 g/m*3 14.34 C 0 km/h
452 06-06-2004 00:00:00 16.84667 C 9.18 g/m*3 16.85 C 0 km/h
453 07-06-2004 00:00:00 20.69333 C 9.87 g/m*3 20.69 C 0 km/h
454 08-06-2004 00:00:00 23.6575 C 11.14 g/m*3 23.66 C 0 km/h
455 09-06-2004 00:00:00 24.735 C 13.13 g/m*3 24.74 C 0 km/h
456 10-06-2004 00:00:00 21.21417 C 14.55 g/m*3 21.21 C 0 km/h
457 11-06-2004 00:00:00 18.8725 C 12.84 g/m*3 18.87 C 0 km/h
458 12-06-2004 00:00:00 15.64417 C 9.74 g/m*3 15.64 C 0 km/h
459 13-06-2004 00:00:00 15.35042 C 9.24 g/m*3 15.35 C 0 km/h
460 14-06-2004 00:00:00 17.5175 C 9.03 g/m*3 17.52 C 0 km/h
461 15-06-2004 00:00:00 20.5725 C 10.96 g/m*3 20.57 C 0 km/h
462 16-06-2004 00:00:00 17.205 C 7.51 g/m*3 17.2 C 0 km/h
463 17-06-2004 00:00:00 18.3025 C 8.69 g/m*3 18.3 C 0 km/h
464 18-06-2004 00:00:00 15.54 C 9.61 g/m*3 15.54 C 0 km/h
465 19-06-2004 00:00:00 14.39167 C 8.28 g/m*3 14.39 C 0 km/h
466 20-06-2004 00:00:00 14.56583 C 7.37 g/m*3 14.57 C 0 km/h
467 21-06-2004 00:00:00 14.90333 C 8.02 g/m*3 14.9 C 0 km/h
468 22-06-2004 00:00:00 15.64583 C 10.33 g/m*3 15.65 C 0 km/h
469 23-06-2004 00:00:00 19.17083 C 10.61 g/m*3 19.17 C 0 km/h
470 24-06-2004 00:00:00 16.3775 C 7.16 g/m*3 16.38 C 0 km/h
471 25-06-2004 00:00:00 14.59167 C 7.8 g/m*3 14.59 C 0 km/h
472 26-06-2004 00:00:00 16.39328 C 8.74 g/m*3 16.39 C 0 km/h
473 27-06-2004 00:00:00 20.93475 C 11.55 g/m*3 20.93 C 0 km/h
474 28-06-2004 00:00:00 19.74667 C 7.96 g/m*3 19.75 C 0 km/h
475 29-06-2004 00:00:00 18.54833 C 8.3 g/m*3 18.55 C 0 km/h
Sensor: Nr:Datum:Temp:Abs-Feuchte:Windchill:Wind:
Aussen-T/F 476 30-06-2004 00:00:00 20.9875 C 9.12 g/m*3 20.99 C 0 km/h
477 01-07-2004 00:00:00 18.20084 C 8.16 g/m*3 18.2 C 0 km/h
478 02-07-2004 00:00:00 15.81417 C 9.1 g/m*3 15.81 C 0 km/h
479 03-07-2004 00:00:00 15.91333 C 8.88 g/m*3 15.91 C 0 km/h
480 04-07-2004 00:00:00 15.28 C 9.43 g/m*3 15.28 C 0 km/h
481 05-07-2004 00:00:00 18.50083 C 10.14 g/m*3 18.5 C 0 km/h
482 06-07-2004 00:00:00 19.60833 C 8.72 g/m*3 19.61 C 0 km/h
483 07-07-2004 00:00:00 18.90167 C 10.22 g/m*3 18.9 C 0 km/h
484 08-07-2004 00:00:00 18.76833 C 11.9 g/m*3 18.77 C 0 km/h
485 09-07-2004 00:00:00 15.12333 C 10.24 g/m*3 15.12 C 0 km/h
486 10-07-2004 00:00:00 14.9525 C 8.82 g/m*3 14.95 C 0 km/h
487 11-07-2004 00:00:00 14.95417 C 8.32 g/m*3 14.95 C 0 km/h
488 12-07-2004 00:00:00 14.17 C 9.42 g/m*3 14.17 C 0 km/h
489 13-07-2004 00:00:00 14.57815 C 8.55 g/m*3 14.58 C 0 km/h
490 14-07-2004 00:00:00 16.24083 C 9.35 g/m*3 16.24 C 0 km/h
491 15-07-2004 00:00:00 19.03167 C 12.77 g/m*3 19.03 C 0 km/h
492 16-07-2004 00:00:00 22.7475 C 12.5 g/m*3 22.75 C 0 km/h
493 17-07-2004 00:00:00 21.68 C 13.47 g/m*3 21.68 C 0 km/h
494 18-07-2004 00:00:00 19.98843 C 13.88 g/m*3 19.99 C 0 km/h
495 19-07-2004 00:00:00 21.74667 C 12.55 g/m*3 21.75 C 0 km/h
496 20-07-2004 00:00:00 19.855 C 12.88 g/m*3 19.86 C 0 km/h
497 21-07-2004 00:00:00 22.40083 C 13.38 g/m*3 22.4 C 0 km/h
498 22-07-2004 00:00:00 24.60504 C 14.07 g/m*3 24.61 C 0 km/h
499 23-07-2004 00:00:00 23.33 C 14.72 g/m*3 23.33 C 0 km/h
500 24-07-2004 00:00:00 22.0075 C 10.74 g/m*3 22.01 C 0 km/h
Sensor: Nr:Datum:Temp:Abs-Feuchte:Windchill:Wind:
Aussen-T/F 501 25-07-2004 00:00:00 18.13833 C 10.05 g/m*3 18.14 C 0 km/h
502 26-07-2004 00:00:00 16.53583 C 10.88 g/m*3 16.54 C 0 km/h
503 27-07-2004 00:00:00 18.31092 C 10.02 g/m*3 18.31 C 0 km/h
504 28-07-2004 00:00:00 20.28583 C 9.5 g/m*3 20.29 C 0 km/h
505 29-07-2004 00:00:00 21.75917 C 9.6 g/m*3 21.76 C 0 km/h
506 30-07-2004 00:00:00 22.845 C 10.59 g/m*3 22.85 C 0 km/h
507 31-07-2004 00:00:00 23.185 C 12.07 g/m*3 23.19 C 0 km/h
508 01-08-2004 00:00:00 23.30333 C 12.07 g/m*3 23.3 C 0 km/h
509 02-08-2004 00:00:00 23.80917 C 11.1 g/m*3 23.81 C 0 km/h
510 03-08-2004 00:00:00 24.1975 C 10.83 g/m*3 24.2 C 0 km/h
511 04-08-2004 00:00:00 23.40756 C 13.04 g/m*3 23.41 C 0 km/h
512 05-08-2004 00:00:00 25.28167 C 12.69 g/m*3 25.28 C 0 km/h
513 06-08-2004 00:00:00 25.0625 C 12.09 g/m*3 25.06 C 0 km/h
514 07-08-2004 00:00:00 24.03167 C 14.41 g/m*3 24.03 C 0 km/h
515 08-08-2004 00:00:00 24.36 C 13.84 g/m*3 24.36 C 0 km/h
516 09-08-2004 00:00:00 25.4775 C 10.89 g/m*3 25.48 C 0 km/h
517 10-08-2004 00:00:00 22.66333 C 11.69 g/m*3 22.66 C 0 km/h
518 11-08-2004 00:00:00 22.42804 C 14.99 g/m*3 22.43 C 0 km/h
519 12-08-2004 00:00:00 20.15417 C 13.25 g/m*3 20.15 C 0 km/h
520 13-08-2004 00:00:00 17.9625 C 11.42 g/m*3 17.96 C 0 km/h
521 14-08-2004 00:00:00 18.08333 C 12.27 g/m*3 18.08 C 0 km/h
522 15-08-2004 00:00:00 21.52708 C 11.93 g/m*3 21.53 C 0 km/h
523 16-08-2004 00:00:00 20.10625 C 12.61 g/m*3 20.11 C 0 km/h
524 17-08-2004 00:00:00 20.58958 C 13.87 g/m*3 20.59 C 0 km/h
525 18-08-2004 00:00:00 22.67292 C 13.2 g/m*3 22.67 C 0 km/h
Sensor: Nr:Datum:Temp:Abs-Feuchte:Windchill:Wind:
Aussen-T/F 526 19-08-2004 00:00:00 21.05417 C 11.68 g/m*3 21.05 C 0 km/h
527 20-08-2004 00:00:00 18.89583 C 10.4 g/m*3 18.9 C 0 km/h
528 21-08-2004 00:00:00 15.52708 C 10.53 g/m*3 15.53 C 0 km/h
529 22-08-2004 00:00:00 16.41042 C 9.01 g/m*3 16.41 C 0 km/h
530 23-08-2004 00:00:00 16.42708 C 10.17 g/m*3 16.43 C 0 km/h
531 24-08-2004 00:00:00 17.42083 C 11.51 g/m*3 17.42 C 0 km/h
532 25-08-2004 00:00:00 16.20847 C 10.15 g/m*3 16.21 C 0 km/h
533 26-08-2004 00:00:00 16.76083 C 9.98 g/m*3 16.76 C 0 km/h
534 27-08-2004 00:00:00 15.82269 C 9.42 g/m*3 15.82 C 0 km/h
535 28-08-2004 00:00:00 17.58 C 12.34 g/m*3 17.58 C 0 km/h
536 29-08-2004 00:00:00 18.84917 C 11.59 g/m*3 18.85 C 0 km/h
537 30-08-2004 00:00:00 15.81333 C 10.43 g/m*3 15.81 C 0 km/h
538 31-08-2004 00:00:00 14.84333 C 8.88 g/m*3 14.84 C 0 km/h
539 01-09-2004 00:00:00 15.91667 C 9.07 g/m*3 15.92 C 0 km/h
540 02-09-2004 00:00:00 17.21429 C 9.62 g/m*3 17.21 C 0 km/h
541 03-09-2004 00:00:00 20.0275 C 11.76 g/m*3 20.03 C 0 km/h
542 04-09-2004 00:00:00 21.15083 C 12.63 g/m*3 21.15 C 0 km/h
543 05-09-2004 00:00:00 21.63833 C 12.6 g/m*3 21.64 C 0 km/h
544 06-09-2004 00:00:00 20.35 C 10.92 g/m*3 20.35 C 0 km/h
545 07-09-2004 00:00:00 21.00167 C 11.07 g/m*3 21 C 0 km/h
546 08-09-2004 00:00:00 20.15294 C 10.46 g/m*3 20.15 C 0 km/h
547 09-09-2004 00:00:00 18.48167 C 8.08 g/m*3 18.48 C 0 km/h
548 10-09-2004 00:00:00 17.9825 C 8.26 g/m*3 17.98 C 0 km/h
549 11-09-2004 00:00:00 20.54583 C 12.35 g/m*3 20.55 C 0 km/h
550 12-09-2004 00:00:00 17.1475 C 9.04 g/m*3 17.15 C 0 km/h
Sensor: Nr:Datum:Temp:Abs-Feuchte:Windchill:Wind:
Aussen-T/F 551 13-09-2004 00:00:00 17.07 C 8.88 g/m*3 17.07 C 0 km/h
552 14-09-2004 00:00:00 17.45462 C 8.44 g/m*3 17.45 C 0 km/h
553 15-09-2004 00:00:00 14.54333 C 8.16 g/m*3 14.54 C 0 km/h
554 16-09-2004 00:00:00 12.64 C 7.27 g/m*3 12.64 C 0 km/h
555 17-09-2004 00:00:00 13.2175 C 7.39 g/m*3 13.22 C 0 km/h
556 18-09-2004 00:00:00 15.71667 C 8.66 g/m*3 15.72 C 0 km/h
557 19-09-2004 00:00:00 16.38 C 10.18 g/m*3 16.38 C 0 km/h
558 20-09-2004 00:00:00 13.69833 C 7.61 g/m*3 13.7 C 0 km/h
559 21-09-2004 00:00:00 15.01167 C 6.9 g/m*3 15.01 C 0 km/h
560 22-09-2004 00:00:00 12.50168 C 7.63 g/m*3 12.5 C 0 km/h
561 23-09-2004 00:00:00 13.44917 C 10.41 g/m*3 13.45 C 0 km/h
562 24-09-2004 00:00:00 12.08833 C 7.68 g/m*3 12.09 C 0 km/h
563 25-09-2004 00:00:00 12.41167 C 7.54 g/m*3 12.41 C 0 km/h
564 26-09-2004 00:00:00 12.71667 C 8.34 g/m*3 12.72 C 0 km/h
565 27-09-2004 00:00:00 13.985 C 9.75 g/m*3 13.99 C 0 km/h
566 28-09-2004 00:00:00 15.85833 C 10.38 g/m*3 15.86 C 0 km/h
567 29-09-2004 00:00:00 15.4525 C 8.97 g/m*3 15.45 C 0 km/h
568 30-09-2004 00:00:00 13.13583 C 8.54 g/m*3 13.14 C 0 km/h
569 01-10-2004 00:00:00 15.1775 C 9.42 g/m*3 15.18 C 0 km/h
570 02-10-2004 00:00:00 14.82333 C 9.08 g/m*3 14.82 C 0 km/h
571 03-10-2004 00:00:00 13.56417 C 8.33 g/m*3 13.56 C 0 km/h
572 04-10-2004 00:00:00 16.06303 C 9.8 g/m*3 16.06 C 0 km/h
573 05-10-2004 00:00:00 19.11667 C 11.19 g/m*3 19.12 C 0 km/h
574 06-10-2004 00:00:00 14.425 C 9.96 g/m*3 14.43 C 0 km/h
575 07-10-2004 00:00:00 11.63417 C 7.67 g/m*3 11.63 C 0 km/h
Sensor: Nr:Datum:Temp:Abs-Feuchte:Windchill:Wind:
Aussen-T/F 576 08-10-2004 00:00:00 9.55667 C 7.63 g/m*3 9.56 C 0 km/h
577 09-10-2004 00:00:00 10.71833 C 7.51 g/m*3 10.72 C 0 km/h
578 10-10-2004 00:00:00 9.49167 C 6.16 g/m*3 9.49 C 0 km/h
579 11-10-2004 00:00:00 8.54167 C 5.21 g/m*3 8.54 C 0 km/h
580 12-10-2004 00:00:00 8.30333 C 5.07 g/m*3 8.3 C 0 km/h
581 13-10-2004 00:00:00 9.11167 C 6.86 g/m*3 9.11 C 0 km/h
582 14-10-2004 00:00:00 11.28417 C 8.04 g/m*3 11.28 C 0 km/h
583 15-10-2004 00:00:00 10.13917 C 7.5 g/m*3 10.14 C 0 km/h
584 16-10-2004 00:00:00 7.7475 C 6.95 g/m*3 7.75 C 0 km/h
585 17-10-2004 00:00:00 8.67143 C 6.95 g/m*3 8.67 C 0 km/h
586 18-10-2004 00:00:00 9.92417 C 6.91 g/m*3 9.92 C 0 km/h
587 19-10-2004 00:00:00 8.205 C 7.02 g/m*3 8.21 C 0 km/h
588 20-10-2004 00:00:00 12.1075 C 9.58 g/m*3 12.11 C 0 km/h
589 21-10-2004 00:00:00 14.14083 C 8.35 g/m*3 14.14 C 0 km/h
590 22-10-2004 00:00:00 10.405 C 7.51 g/m*3 10.41 C 0 km/h
591 23-10-2004 00:00:00 14.51083 C 8.98 g/m*3 14.51 C 0 km/h
592 24-10-2004 00:00:00 15.26 C 10.21 g/m*3 15.26 C 0 km/h
593 25-10-2004 00:00:00 14.77917 C 8.83 g/m*3 14.78 C 0 km/h
594 26-10-2004 00:00:00 10.89917 C 7.87 g/m*3 10.9 C 0 km/h
595 27-10-2004 00:00:00 9.63083 C 7.31 g/m*3 9.63 C 0 km/h
596 28-10-2004 00:00:00 12.44833 C 8.74 g/m*3 12.45 C 0 km/h
597 29-10-2004 00:00:00 12.78908 C 9.56 g/m*3 12.79 C 0 km/h
598 30-10-2004 00:00:00 10.50417 C 8.76 g/m*3 10.5 C 0 km/h
599 31-10-2004 00:00:00 10.9848 C 8.21 g/m*3 10.98 C 0 km/h
600 01-11-2004 00:00:00 9.905 C 7.35 g/m*3 9.9 C 0 km/h
Sensor: Nr:Datum:Temp:Abs-Feuchte:Windchill:Wind:
Aussen-T/F 601 02-11-2004 00:00:00 10.325 C 7.68 g/m*3 10.33 C 0 km/h
602 03-11-2004 00:00:00 10.58917 C 8.6 g/m*3 10.59 C 0 km/h
603 04-11-2004 00:00:00 10.43417 C 9.03 g/m*3 10.43 C 0 km/h
604 05-11-2004 00:00:00 8.9725 C 6.72 g/m*3 8.97 C 0 km/h
605 06-11-2004 00:00:00 7.45417 C 6.76 g/m*3 7.45 C 0 km/h
606 07-11-2004 00:00:00 5.835 C 6.43 g/m*3 5.84 C 0 km/h
607 08-11-2004 00:00:00 3.9825 C 5.85 g/m*3 3.98 C 0 km/h
608 09-11-2004 00:00:00 2.1375 C 4.89 g/m*3 2.14 C 0 km/h
609 10-11-2004 00:00:00 1.37667 C 4.98 g/m*3 1.38 C 0 km/h
610 11-11-2004 00:00:00 3.1563 C 5.18 g/m*3 3.16 C 0 km/h
611 12-11-2004 00:00:00 4.21333 C 5.29 g/m*3 4.21 C 0 km/h
612 13-11-2004 00:00:00 4.75583 C 5.38 g/m*3 4.76 C 0 km/h
613 14-11-2004 00:00:00 3.52333 C 4.99 g/m*3 3.52 C 0 km/h
614 15-11-2004 00:00:00 2.90583 C 4.99 g/m*3 2.91 C 0 km/h
615 16-11-2004 00:00:00 6.5475 C 5.87 g/m*3 6.55 C 0 km/h
616 17-11-2004 00:00:00 9.91917 C 7.05 g/m*3 9.92 C 0 km/h
617 18-11-2004 00:00:00 9.40583 C 7.16 g/m*3 9.41 C 0 km/h
618 19-11-2004 00:00:00 3.91083 C 4.5 g/m*3 3.91 C 0 km/h
619 20-11-2004 00:00:00 2.23583 C 3.44 g/m*3 2.24 C 0 km/h
620 21-11-2004 00:00:00 0.33333 C 3.81 g/m*3 0.33 C 0 km/h
621 22-11-2004 00:00:00 8.65583 C 6.81 g/m*3 8.66 C 0 km/h
622 23-11-2004 00:00:00 7.97563 C 6.86 g/m*3 7.98 C 0 km/h
623 24-11-2004 00:00:00 1.78417 C 4.76 g/m*3 1.78 C 0 km/h
624 25-11-2004 00:00:00 -0.49667 C 4 g/m*3 -0.5 C 0 km/h
625 26-11-2004 00:00:00 3.6775 C 4.77 g/m*3 3.68 C 0 km/h
Sensor: Nr:Datum:Temp:Abs-Feuchte:Windchill:Wind:
Aussen-T/F 626 27-11-2004 00:00:00 7.69167 C 6.37 g/m*3 7.69 C 0 km/h
627 28-11-2004 00:00:00 8.34417 C 6.1 g/m*3 8.34 C 0 km/h
628 29-11-2004 00:00:00 5.86583 C 5.62 g/m*3 5.87 C 0 km/h
629 30-11-2004 00:00:00 2.81167 C 4.91 g/m*3 2.81 C 0 km/h
630 01-12-2004 00:00:00 4.71167 C 5.16 g/m*3 4.71 C 0 km/h
631 02-12-2004 00:00:00 4.24333 C 4.84 g/m*3 4.24 C 0 km/h
632 03-12-2004 00:00:00 3.0975 C 5.28 g/m*3 3.1 C 0 km/h
633 04-12-2004 00:00:00 1.99667 C 4.6 g/m*3 2 C 0 km/h
634 05-12-2004 00:00:00 1.255 C 4.17 g/m*3 1.25 C 0 km/h
635 06-12-2004 00:00:00 4.54622 C 5.31 g/m*3 4.55 C 0 km/h
636 07-12-2004 00:00:00 4.37667 C 4.85 g/m*3 4.38 C 0 km/h
637 08-12-2004 00:00:00 5.02833 C 5.01 g/m*3 5.03 C 0 km/h
638 09-12-2004 00:00:00 -0.1025 C 3.89 g/m*3 -0.1 C 0 km/h
639 10-12-2004 00:00:00 -3.5675 C 3.26 g/m*3 -3.57 C 0 km/h
640 11-12-2004 00:00:00 -2.575 C 3.5 g/m*3 -2.58 C 0 km/h
641 12-12-2004 00:00:00 -1.58833 C 3.25 g/m*3 -1.59 C 0 km/h
642 13-12-2004 00:00:00 -1.33917 C 3.22 g/m*3 -1.34 C 0 km/h
643 14-12-2004 00:00:00 -2.87083 C 3.12 g/m*3 -2.87 C 0 km/h
644 15-12-2004 00:00:00 -3.50917 C 3.26 g/m*3 -3.51 C 0 km/h
645 16-12-2004 00:00:00 -0.65333 C 4.04 g/m*3 -0.65 C 0 km/h
646 17-12-2004 00:00:00 5.17667 C 5.6 g/m*3 5.18 C 0 km/h
647 18-12-2004 00:00:00 3.6479 C 4.61 g/m*3 3.65 C 0 km/h
648 19-12-2004 00:00:00 1.25083 C 4.26 g/m*3 1.25 C 0 km/h
649 20-12-2004 00:00:00 -2.95667 C 3.26 g/m*3 -2.96 C 0 km/h
650 21-12-2004 00:00:00 -6.37167 C 2.46 g/m*3 -6.37 C 0 km/h
Sensor: Nr:Datum:Temp:Abs-Feuchte:Windchill:Wind:
Aussen-T/F 651 22-12-2004 00:00:00 -1.36667 C 3.44 g/m*3 -1.37 C 0 km/h
652 23-12-2004 00:00:00 5.19667 C 5.57 g/m*3 5.2 C 0 km/h
653 24-12-2004 00:00:00 8.21833 C 6.45 g/m*3 8.22 C 0 km/h
654 25-12-2004 00:00:00 6.31333 C 5.5 g/m*3 6.31 C 0 km/h
655 26-12-2004 00:00:00 1.5975 C 4.62 g/m*3 1.6 C 0 km/h
656 27-12-2004 00:00:00 1.34167 C 3.71 g/m*3 1.34 C 0 km/h
657 28-12-2004 00:00:00 0.25917 C 3.75 g/m*3 0.26 C 0 km/h
658 29-12-2004 00:00:00 2.37333 C 4.75 g/m*3 2.37 C 0 km/h
659 30-12-2004 00:00:00 3.3325 C 4.63 g/m*3 3.33 C 0 km/h
660 31-12-2004 00:00:00 6.41333 C 5.98 g/m*3 6.41 C 0 km/h

Maximal/Minimal-Werte vom 23.02.2003 - 31.12.2004

Sensor Min Max Avg
Temp
(Aussen-T/F)
-9.4 °C
03-01-2004  05:50:00
36.2 °C
08-08-2003  16:43:01
12.21 °C
Abs-Feuchte
(Aussen-T/F)
2.04 g/m*3
02-01-2004  00:00:00
14.99 g/m*3
11-08-2004  00:00:00
7.53 g/m*3
Windchill
(Aussen-T/F)
-6.37 C
21-12-2004  00:00:00
28.96 C
08-08-2003  00:00:00
12.22 C

Die Daten stammen von einer Davis Vantage Pro 2 Wetter-Station und werden unter Linux mit der Software wview2wettercgi und aufbereitet. Alle Angaben erfolgen ohne Gewähr für ihre Vollständigkeit oder Richtigkeit.
Kontakt: Rainer Krienke krienke@uni-koblenz.de . Meine Webseiten an der Uni Koblenz oder privat.
Version: $Revision: 0.78 $